Weather History for Philadelphia, PA

Change the Weather History Date:

Sunday, July 8, 2012

  Actual Average Record
Temperature  
Mean Temperature 85 °F 78 °F  
Max Temperature 90 °F 87 °F 100 °F (1993)
Min Temperature 79 °F 69 °F 53 °F (1960)
Degree Days  
Heating Degree Days 0 0  
Month to date heating degree days 0 0  
Since 1 June heating degree days 7 11  
Since 1 July heating degree days 0 0  
Cooling Degree Days 20 13  
Month to date cooling degree days 168 101  
Year to date cooling degree days 602 450  
Since 1 June cooling degree days 438 359  
Growing Degree Days 34 (Base 50)    
Moisture  
Dew Point 68 °F    
Average Humidity 65    
Maximum Humidity 79    
Minimum Humidity 50    
Precipitation  
Precipitation 0.00 in 0.14 in 2.28 in (1964)
Month to date precipitation T 1.04  
Year to date precipitation 14.06 21.21  
Snow  
Snow 0.00 in 0.00 in 0.00 in (1870)
Month to date snowfall 0.0 0.0  
Since 1 June snowfall 0.0 0.0  
Since 1 July snowfall 0.0 0.0  
Snow Depth 0.00 in    
Sea Level Pressure  
Sea Level Pressure 29.85 in    
Wind  
Wind Speed 6 mph (NW)    
Max Wind Speed 13 mph    
Max Gust Speed 18 mph    
Visibility 10 miles    
Events      
T = Trace of Precipitation, MM = Missing Value Source: NWS Daily Summary

Daily Weather History Graph

Daily Weather History Graph

Search for Another Location

Airport:

Trip Planner

Search our weather history database for the weather conditions in past years. The results will help you decide how hot, cold, wet, or windy it might be!

Date:

Astronomy

Jul. 08, 2012 Rise Set
Actual Time 5:40 AM EDT 8:31 PM EDT
Civil Twilight 5:08 AM EDT 9:03 PM EDT
Nautical Twilight 4:27 AM EDT 9:44 PM EDT
Astronomical Twilight 3:40 AM EDT 10:30 PM EDT
Moon 11:18 PM EDT (7/8) 11:04 AM EDT (7/8)
Length of Visible Light 15h 55m
Length of Day
14h 50m
Waning Gibbous, 73% of the Moon is Illuminated
Jul 8
Waning Gibbous
Jul 10
Last Quarter
Jul 19
New
Jul 26
First Quarter
Aug 1
Full

Hourly Weather History & Observations

Time (EDT) Temp. Heat Index Dew Point Humidity Pressure Visibility Wind Dir Wind Speed Gust Speed Precip Events Conditions
12:54 AM 82.9 °F 87.0 °F 70.0 °F 65% 29.83 in 10.0 mi NNW 4.6 mph - N/A   Mostly Cloudy
1:54 AM 82.9 °F 85.8 °F 68.0 °F 60% 29.83 in 10.0 mi North 8.1 mph - N/A   Mostly Cloudy
2:54 AM 82.0 °F 84.9 °F 68.0 °F 62% 29.82 in 10.0 mi North 6.9 mph - N/A   Mostly Cloudy
3:54 AM 80.1 °F 82.9 °F 69.1 °F 69% 29.82 in 10.0 mi North 4.6 mph - N/A   Mostly Cloudy
4:54 AM 80.1 °F 82.9 °F 69.1 °F 69% 29.84 in 10.0 mi North 5.8 mph - N/A   Mostly Cloudy
5:54 AM 80.1 °F 83.2 °F 70.0 °F 71% 29.85 in 10.0 mi North 3.5 mph - N/A   Mostly Cloudy
6:54 AM 81.0 °F 84.4 °F 70.0 °F 69% 29.87 in 10.0 mi North 5.8 mph - N/A   Mostly Cloudy
7:54 AM 82.9 °F 85.4 °F 66.9 °F 58% 29.88 in 10.0 mi NNE 9.2 mph - N/A   Mostly Cloudy
9:54 AM 86.0 °F 90.1 °F 69.1 °F 57% 29.86 in 10.0 mi North 4.6 mph - N/A   Mostly Cloudy
10:54 AM 84.9 °F 86.1 °F 64.0 °F 49% 29.87 in 10.0 mi North 5.8 mph - N/A   Mostly Cloudy
11:54 AM 87.1 °F 89.2 °F 66.0 °F 49% 29.87 in 10.0 mi Variable 3.5 mph - N/A   Mostly Cloudy
12:54 PM 87.1 °F 90.6 °F 68.0 °F 53% 29.87 in 10.0 mi WSW 5.8 mph - N/A   Overcast
1:54 PM 88.0 °F 90.7 °F 66.9 °F 49% 29.86 in 10.0 mi North 3.5 mph - N/A   Overcast
2:54 PM 87.1 °F 89.2 °F 66.0 °F 49% 29.85 in 10.0 mi Variable 4.6 mph - N/A   Overcast
3:54 PM 87.1 °F 89.2 °F 66.0 °F 49% 29.85 in 10.0 mi NW 10.4 mph - N/A   Overcast
4:54 PM 87.1 °F 89.9 °F 66.9 °F 51% 29.84 in 10.0 mi WNW 5.8 mph - N/A   Mostly Cloudy
5:54 PM 88.0 °F 90.3 °F 66.0 °F 48% 29.83 in 10.0 mi West 8.1 mph - N/A   Mostly Cloudy
6:54 PM 88.0 °F 90.3 °F 66.0 °F 48% 29.83 in 10.0 mi WNW 5.8 mph - N/A   Mostly Cloudy
7:54 PM 87.1 °F 90.6 °F 68.0 °F 53% 29.82 in 10.0 mi SW 6.9 mph - N/A   Overcast
8:54 PM 84.9 °F 88.2 °F 68.0 °F 57% 29.84 in 10.0 mi SW 6.9 mph - N/A   Scattered Clouds
9:54 PM 84.0 °F 87.8 °F 69.1 °F 61% 29.86 in 10.0 mi SW 4.6 mph - N/A   Partly Cloudy
10:54 PM 81.0 °F 85.2 °F 72.0 °F 74% 29.87 in 10.0 mi South 6.9 mph - N/A   Clear
11:54 PM 81.0 °F 85.8 °F 73.0 °F 77% 29.86 in 10.0 mi West 4.6 mph - N/A   Mostly Cloudy